Regional Weather Roundup
Issued by NWS

Home | Current Version | Previous Version | Graphics & Text | Print | Product List | Glossary On
Versions: 1 2 3 4 5 6 7 8 9 10 11 12 13 14 15 16 17 18 19 20 21 22 23 24 25 26 27 28 29 30 31 32 33 34 35 36 37 38 39 40 41 42 43 44 45 46 47 48 49
000
ASUS45 KSLC 212310
RWRUT

UTAH REGIONAL WEATHER ROUNDUP
NATIONAL WEATHER SERVICE SALT LAKE CITY UT
500 PM MDT SUN SEP 21 2014

UTZ001>011-023>025-220000-

NORTHERN UTAH

CITY           SKY/WX    TMP DP  RH WIND       PRES   REMARKS
HILL AFB       CLOUDY    63  57  81 SW7       30.17S
LOGAN          LGT RAIN  61  56  83 CALM      30.17S
OGDEN          CLOUDY    62  60  93 SW10      30.15F
PROVO AIRPORT  CLOUDY    64  57  77 W8        30.17F
SALT LAKE CITY CLOUDY    65  60  84 E9        30.13F
VERNAL         TSTM      59  55  87 SW17G26   30.26R FOG
WENDOVER       MOSUNNY   70  54  56 E7        30.12S
HEBER CITY     CLOUDY    61  55  82 CALM      30.21F
WEST JORDAN    SUNNY     64  57  77 SE10      30.16F

$$

UTZ012>022-026-027-220000-

SOUTHERN UTAH

CITY           SKY/WX    TMP DP  RH WIND       PRES   REMARKS
BRYCE CANYON   CLOUDY    63  51  65 E7        30.29F
CEDAR CITY     SUNNY     71  55  56 VRB5      30.15F
MILFORD        LGT RAIN  72  54  53 NE7       30.13F
MOAB/CYNLANDS  MOSUNNY   71  60  68 NW7       30.15F
PRICE          CLOUDY    64  56  75 CALM      30.23F
ST GEORGE      CLOUDY    82  57  42 W3        30.01S
KANAB            N/A     75  55  50 NW5       30.15F

$$

REGIONAL REPORTS     COLORADO/ARIZONA

CITY           SKY/WX    TMP DP  RH WIND       PRES   REMARKS
CRAIG, CO      CLOUDY    68  50  52 E17       30.27F
GRAND JUNCTION PTSUNNY   67  57  70 W17G28    30.18R
RIFLE          PTSUNNY   75  48  38 E9        30.19F
MONTROSE       MOSUNNY   78  54  43 N6        30.19S
CORTEZ         PTSUNNY   79  51  37 S8        30.19F
PAGE, AZ       MOSUNNY   82  55  39 VRB3      30.08F
GRAND CANYON   MOSUNNY   75  46  35 SW15G24   30.23F
KINGMAN        SUNNY     88  37  16 SW17      30.01F
FLAGSTAFF      SUNNY     71  47  42 S14G23    30.28S

$$

REGIONAL REPORTS    NEVADA/IDAHO/WYOMING

CITY           SKY/WX    TMP DP  RH WIND       PRES   REMARKS
LAS VEGAS, NV  MOSUNNY   92  50  23 VRB5      29.87F
ELY            PTSUNNY   68  46  45 S23G32    30.17R
ELKO           MOSUNNY   71  46  40 CALM      30.10F
POCATELLO, ID  CLOUDY    68  52  56 S16G25    30.14R
BURLEY         LGT RAIN  64  57  78 SW13      30.12R
EVANSTON, WY   LGT RAIN  53  50  89 E10       30.31S FOG
ROCK SPRINGS   CLOUDY    64  45  49 CALM      30.29F

$$


USA.gov is the U.S. government's official web portal to all federal, state and local government web resources and services.